Starlink 5451

operational
NORAD ID: 54771 Int'l Des: 2022-175 Owner: SPXS Country: US Constellation: starlink
LEOCIRCULAR

关于 Starlink 5451

正在加载描述...

实时位置

正在加载3D地球...

即将过境

高度历史

Altitude vs Time

uPlot chart will show altitude changes over time

两行轨道根数

1 54771U 22175P 25256.97143473 .00000965 00000-0 78696-4 0 9999
2 54771 53.2170 112.2408 0001382 96.4682 263.6468 15.08836432153319
Epoch: Sep 13, 2025 • Age: 36 hours

当前状态

高度 555.5 km
速度 7.58 km/s
星下点 -44.43°S, 167.34°E
发射日期 Dec 17, 2022
运行时间 2.7 years
类型 internet

技术详情

分类 Payload
质量 305.00 kg
干质量 290.00 kg
总质量 305.00 kg
长度 0.20 m
直径 2.80 m
跨度 9.00 m
形状 Box + pan
制造商 SPXS
平台类型 Starlink
阶段状态 In Orbit
所有者/国家 SPXS/US

大型星座

Loading constellations...